TimeEST,TemperatureF,Dew PointF,Humidity,Sea Level PressureIn,VisibilityMPH,Wind Direction,Wind SpeedMPH,Gust SpeedMPH,PrecipitationIn,Events,Conditions,WindDirDegrees,DateUTC
12:15 AM,37.4,30.2,75,30.59,10.0,Calm,Calm,-,N/A,,Clear,0,2013-11-05 05:15:00
12:35 AM,35.6,30.2,81,30.58,10.0,Calm,Calm,-,N/A,,Clear,0,2013-11-05 05:35:00
12:55 AM,35.6,30.2,81,30.58,10.0,Calm,Calm,-,N/A,,Clear,0,2013-11-05 05:55:00
1:15 AM,35.6,30.2,81,30.58,10.0,North,3.5,-,N/A,,Clear,10,2013-11-05 06:15:00
1:35 AM,37.4,28.4,70,30.57,10.0,Calm,Calm,-,N/A,,Clear,0,2013-11-05 06:35:00
1:55 AM,35.6,28.4,75,30.56,10.0,Calm,Calm,-,N/A,,Clear,0,2013-11-05 06:55:00
2:15 AM,35.6,30.2,81,30.57,10.0,Calm,Calm,-,N/A,,Clear,0,2013-11-05 07:15:00
2:35 AM,33.8,30.2,87,30.58,10.0,Calm,Calm,-,N/A,,Clear,0,2013-11-05 07:35:00
2:55 AM,33.8,30.2,87,30.58,10.0,Calm,Calm,-,N/A,,Clear,0,2013-11-05 07:55:00
3:15 AM,33.8,30.2,87,30.58,10.0,Calm,Calm,-,N/A,,Clear,0,2013-11-05 08:15:00
3:35 AM,33.8,30.2,87,30.58,10.0,Calm,Calm,-,N/A,,Clear,0,2013-11-05 08:35:00
3:55 AM,32.0,32.0,100,30.57,10.0,Calm,Calm,-,N/A,,Clear,0,2013-11-05 08:55:00
4:15 AM,33.8,30.2,87,30.58,10.0,Calm,Calm,-,N/A,,Clear,0,2013-11-05 09:15:00
4:35 AM,32.0,32.0,100,30.58,10.0,Calm,Calm,-,N/A,,Clear,0,2013-11-05 09:35:00
4:55 AM,32.0,30.2,93,30.58,10.0,Calm,Calm,-,N/A,,Clear,0,2013-11-05 09:55:00
5:15 AM,32.0,30.2,93,30.59,10.0,Calm,Calm,-,N/A,,Clear,0,2013-11-05 10:15:00
5:35 AM,32.0,30.2,93,30.59,10.0,Calm,Calm,-,N/A,,Clear,0,2013-11-05 10:35:00
5:55 AM,32.0,30.2,93,30.59,10.0,Calm,Calm,-,N/A,,Clear,0,2013-11-05 10:55:00
6:15 AM,30.2,30.2,100,30.59,10.0,Calm,Calm,-,N/A,,Clear,0,2013-11-05 11:15:00
6:35 AM,32.0,30.2,93,30.60,10.0,Calm,Calm,-,N/A,,Clear,0,2013-11-05 11:35:00
6:55 AM,32.0,28.4,87,30.60,10.0,Calm,Calm,-,N/A,,Clear,0,2013-11-05 11:55:00
7:15 AM,30.2,28.4,93,30.59,10.0,Calm,Calm,-,N/A,,Clear,0,2013-11-05 12:15:00
7:35 AM,32.0,30.2,93,30.60,10.0,Calm,Calm,-,N/A,,Clear,0,2013-11-05 12:35:00
7:55 AM,32.0,32.0,100,30.61,10.0,Calm,Calm,-,N/A,,Clear,0,2013-11-05 12:55:00
8:15 AM,33.8,32.0,93,30.62,10.0,Calm,Calm,-,N/A,,Clear,0,2013-11-05 13:15:00
8:35 AM,33.8,32.0,93,30.62,10.0,Calm,Calm,-,N/A,,Clear,0,2013-11-05 13:35:00
8:55 AM,35.6,32.0,87,30.63,10.0,Calm,Calm,-,N/A,,Clear,0,2013-11-05 13:55:00
9:15 AM,37.4,33.8,87,30.63,10.0,Calm,Calm,-,N/A,,Clear,0,2013-11-05 14:15:00
9:35 AM,41.0,30.2,65,30.61,10.0,NNE,3.5,-,N/A,,Clear,30,2013-11-05 14:35:00
9:55 AM,42.8,30.2,61,30.62,10.0,North,3.5,-,N/A,,Clear,10,2013-11-05 14:55:00
10:15 AM,44.6,30.2,57,30.61,10.0,Calm,Calm,-,N/A,,Clear,0,2013-11-05 15:15:00
10:35 AM,44.6,32.0,61,30.62,10.0,Calm,Calm,-,N/A,,Clear,0,2013-11-05 15:35:00
10:55 AM,46.4,32.0,57,30.61,10.0,Calm,Calm,-,N/A,,Scattered Clouds,0,2013-11-05 15:55:00
11:15 AM,46.4,32.0,57,30.60,10.0,Calm,Calm,-,N/A,,Mostly Cloudy,0,2013-11-05 16:15:00
11:35 AM,48.2,33.8,58,30.59,10.0,Calm,Calm,-,N/A,,Scattered Clouds,0,2013-11-05 16:35:00
11:55 AM,50.0,35.6,58,30.58,10.0,Calm,Calm,-,N/A,,Mostly Cloudy,0,2013-11-05 16:55:00
12:15 PM,50.0,35.6,58,30.57,10.0,Calm,Calm,-,N/A,,Mostly Cloudy,0,2013-11-05 17:15:00
12:35 PM,51.8,35.6,54,30.56,10.0,ENE,3.5,-,N/A,,Scattered Clouds,60,2013-11-05 17:35:00
12:55 PM,53.6,37.4,54,30.55,10.0,Calm,Calm,-,N/A,,Scattered Clouds,0,2013-11-05 17:55:00
1:15 PM,51.8,39.2,62,30.54,10.0,Calm,Calm,-,N/A,,Mostly Cloudy,0,2013-11-05 18:15:00
1:35 PM,53.6,39.2,58,30.53,10.0,NNE,3.5,-,N/A,,Overcast,20,2013-11-05 18:35:00
1:55 PM,53.6,41.0,62,30.52,10.0,Calm,Calm,-,N/A,,Overcast,0,2013-11-05 18:55:00
2:15 PM,55.4,41.0,58,30.52,10.0,Calm,Calm,-,N/A,,Mostly Cloudy,0,2013-11-05 19:15:00
2:35 PM,55.4,41.0,58,30.51,10.0,Calm,Calm,-,N/A,,Mostly Cloudy,0,2013-11-05 19:35:00
2:55 PM,53.6,41.0,62,30.51,10.0,Calm,Calm,-,N/A,,Mostly Cloudy,0,2013-11-05 19:55:00
3:15 PM,55.4,41.0,58,30.51,10.0,Calm,Calm,-,N/A,,Mostly Cloudy,0,2013-11-05 20:15:00
3:35 PM,55.4,42.8,63,30.50,10.0,Calm,Calm,-,N/A,,Scattered Clouds,0,2013-11-05 20:35:00
3:55 PM,55.4,42.8,63,30.50,10.0,SE,3.5,-,N/A,,Clear,130,2013-11-05 20:55:00
4:15 PM,53.6,42.8,67,30.50,10.0,ESE,3.5,-,N/A,,Clear,120,2013-11-05 21:15:00
4:35 PM,53.6,42.8,67,30.50,10.0,Calm,Calm,-,N/A,,Mostly Cloudy,0,2013-11-05 21:35:00
4:55 PM,53.6,42.8,67,30.50,10.0,Calm,Calm,-,N/A,,Overcast,0,2013-11-05 21:55:00
5:15 PM,53.6,42.8,67,30.50,10.0,Calm,Calm,-,N/A,,Overcast,0,2013-11-05 22:15:00
5:35 PM,53.6,42.8,67,30.50,10.0,Calm,Calm,-,N/A,,Overcast,0,2013-11-05 22:35:00
5:55 PM,53.6,42.8,67,30.50,10.0,Calm,Calm,-,N/A,,Overcast,0,2013-11-05 22:55:00
6:15 PM,53.6,44.6,72,30.50,10.0,Calm,Calm,-,N/A,,Overcast,0,2013-11-05 23:15:00
6:35 PM,53.6,44.6,72,30.51,10.0,Calm,Calm,-,N/A,,Overcast,0,2013-11-05 23:35:00
6:55 PM,53.6,44.6,72,30.51,10.0,East,3.5,-,N/A,,Overcast,80,2013-11-05 23:55:00
7:15 PM,51.8,44.6,76,30.51,10.0,Calm,Calm,-,N/A,,Overcast,0,2013-11-06 00:15:00
7:35 PM,51.8,44.6,76,30.51,10.0,Calm,Calm,-,N/A,,Overcast,0,2013-11-06 00:35:00
7:55 PM,51.8,44.6,76,30.51,10.0,Calm,Calm,-,N/A,,Overcast,0,2013-11-06 00:55:00
8:15 PM,51.8,46.4,82,30.52,10.0,East,5.8,-,N/A,,Overcast,90,2013-11-06 01:15:00
8:35 PM,50.0,46.4,87,30.52,7.0,East,5.8,-,N/A,,Overcast,100,2013-11-06 01:35:00
8:55 PM,50.0,46.4,87,30.52,7.0,Calm,Calm,-,N/A,,Drizzle,0,2013-11-06 01:55:00
9:15 PM,50.0,46.4,87,30.51,7.0,Calm,Calm,-,N/A,,Light Drizzle,0,2013-11-06 02:15:00
9:35 PM,48.2,48.2,100,30.52,5.0,ENE,3.5,-,N/A,Rain,Rain,70,2013-11-06 02:35:00
9:55 PM,48.2,48.2,100,30.51,5.0,NE,3.5,-,N/A,,Light Drizzle,50,2013-11-06 02:55:00
10:15 PM,48.2,48.2,100,30.51,4.0,East,3.5,-,N/A,,Drizzle,80,2013-11-06 03:15:00
10:35 PM,46.4,46.4,100,30.51,3.0,East,3.5,-,N/A,,Drizzle,100,2013-11-06 03:35:00
10:55 PM,46.4,46.4,100,30.51,3.0,ESE,3.5,-,0.01,,Drizzle,120,2013-11-06 03:55:00
11:15 PM,46.4,46.4,100,30.50,4.0,ENE,3.5,-,N/A,,Drizzle,70,2013-11-06 04:15:00
11:35 PM,46.4,46.4,100,30.50,4.0,East,3.5,-,0.01,Rain,Rain,80,2013-11-06 04:35:00
11:55 PM,46.4,46.4,100,30.50,4.0,Calm,Calm,-,0.01,,Drizzle,0,2013-11-06 04:55:00